sat.trackr.live / text

‹ back to catalog

STARLINK-30374

NORAD 57809 · 2023-138B

PAYLOAD ACTIVE UNKNOWN

§ Identity

Operator
Country
US
Launch date
2023-09-09
Launch site
AFETR
Launch vehicle
Mass (kg)
RCS (m²)

Purposes: comms

External: N2YO · Heavens-Above · Gunter

§ Orbital elements

Epoch: 2026-09-20T05:30:15.064128Z

Period
94.27 min
Inclination
42.9939°
Eccentricity
0.0000418
Mean motion
15.27578430 rev/d
Perigee alt
482.8 km
Apogee alt
483.3 km
Semi-major
6,861.2 km
B*
4.0546e-5
RAAN
215.2732°
Arg perigee
8.5244°
Mean anomaly
351.5614°
Rev number
16,849

§ Raw data

STARLINK-303741 57809U 23138B   26263.22934102  .00000854  00000+0  40546-4 0  99972 57809  42.9939 215.2732 0000418   8.5244 351.5614 15.27578430168490

JSON: /api/v1/satellites/57809 · /tle

For live sub-satellite position, see the globe view (requires WebGL).

§ Visibility from observer

Set your observer location to see the next 7 days of passes ≥ 10°. The values pass through the URL so the page stays shareable.

No JS? Fill the form by hand. The geolocation button needs JavaScript.